Location: Burleson Fire Department Station 2
(32.5391°N, 97.3075°W)
Time: 01:33:55
(UTC+00:00)

NOAA 15 - Pass Details

Date: 15 December 2025
Orbit: 793 x 810 km, 98.5° (Epoch: 20 January)

Event Time Altitude Azimuth Distance (km) Brightness Sun altitude
Rises 00:07:14 0° 135° (SE) 3,314 7.6 -8.9°
Reaches altitude 10° 00:09:56 10° 123° (ESE) 2,385 6.7 -9.4°
Maximum altitude 00:14:10 25° 69° (ENE) 1,569 5.5 -10.3°
Drops below altitude 10° 00:18:25 10° 15° (NNE) 2,389 6.7 -11.1°
Sets 00:21:06 0° 3° (N) 3,321 7.6 -11.6°
